ATLAS CENTAUR 2 1 00694U 63047A 25259.22899967 .00001293 00000+0 14720-3 0 9995 2 00694 30.3553 89.9656 0551903 343.7863 14.5703 14.11043694106954 THOR AGENA D R/B 1 00733U 64002A 25259.29024606 .00000235 00000+0 10115-3 0 9997 2 00733 99.1211 258.1722 0033782 47.4338 312.9687 14.33874308213303 SL-3 R/B 1 00877U 64053B 25259.03576549 .00000150 00000+0 53872-4 0 9996 2 00877 65.0763 123.1898 0064716 351.3962 8.6022 14.61156084241276 SL-8 R/B 1 02802U 67045B 25258.89730736 .00000199 00000+0 62866-4 0 9999 2 02802 74.0116 314.4823 0064591 2.8224 357.3284 14.45430256 63769 SL-8 R/B 1 03230U 68040B 25259.12445675 .00002537 00000+0 19738-3 0 9990 2 03230 74.0320 309.9549 0024621 180.2913 179.8265 15.01636917 63796 OAO 2 1 03597U 68110A 25259.09832427 .00000214 00000+0 62833-4 0 9990 2 03597 34.9925 159.9032 0006243 240.5148 119.4920 14.47161784993826 ISIS 1 1 03669U 69009A 25259.17507934 .00000243 00000+0 15710-3 0 9992 2 03669 88.4602 174.3415 1708467 81.4780 297.5317 11.30296328328811 SERT 2 1 04327U 70009A 25259.09416721 .00000018 00000+0 80673-4 0 9991 2 04327 99.2477 206.9506 0003891 249.8830 120.7135 13.58704723756185 SL-3 R/B 1 05118U 71028B 25259.27637220 .00022493 00000+0 41926-3 0 9999 2 05118 81.2380 265.2431 0023676 180.9733 179.1471 15.48359827961577 ASTEX 1 1 05560U 71089A 25259.02682516 .00000382 00000+0 97863-4 0 9993 2 05560 92.7124 95.2681 0014195 321.4713 38.5479 14.50479456836980 SL-8 R/B 1 05730U 71119B 25259.10891940 .00008910 00000+0 47850-3 0 9993 2 05730 73.8879 141.0076 0565843 143.4873 220.6297 14.33675057630434 OAO 3 (COPERNICUS) 1 06153U 72065A 25259.19325995 .00000365 00000+0 79523-4 0 9994 2 06153 35.0049 211.3363 0006701 179.1481 199.0709 14.59788121820687 ATLAS CENTAUR R/B 1 06155U 72065B 25259.26910298 .00001323 00000+0 18616-3 0 9990 2 06155 35.0011 247.4381 0034143 341.6622 18.2846 14.77021243815450 SL-8 R/B 1 08459U 75112B 25258.69297004 .00000192 00000+0 71948-4 0 9995 2 08459 74.0633 340.8010 0014575 116.9954 243.2690 14.38068095606714 SL-3 R/B 1 10114U 77057B 25259.19134200 .00011182 00000+0 27972-3 0 9998 2 10114 97.5648 59.3203 0007960 184.2951 175.8227 15.40258802641426 SEASAT 1 1 10967U 78064A 25259.03073908 .00000227 00000+0 10242-3 0 9993 2 10967 108.0101 119.0785 0002772 285.9072 74.1767 14.45924298481269 SL-14 R/B 1 11267U 79011B 25259.24859312 .00000614 00000+0 58620-4 0 9997 2 11267 82.5205 262.0119 0014482 281.3985 78.5607 14.91590172502770 SL-8 R/B 1 11574U 79089B 25259.15914627 .00000247 00000+0 82859-4 0 9997 2 11574 74.0685 54.0651 0016722 270.7073 89.2167 14.42190104410942 SL-14 R/B 1 11672U 80005B 25259.07976651 .00000483 00000+0 46653-4 0 9996 2 11672 82.5123 112.8270 0016622 30.5321 329.6862 14.90609588450478 SL-8 R/B 1 12139U 81003B 25259.02865674 .00020697 00000+0 58419-3 0 9992 2 12139 82.9294 90.6476 0294557 63.0678 300.0315 15.02714061288373 SL-3 R/B 1 12465U 81046B 25259.20349552 .00010966 00000+0 30045-3 0 9996 2 12465 81.2342 138.4353 0019468 267.0443 92.8569 15.36982010411584 METEOR PRIRODA 1 12585U 81065A 25259.11974971 .00105165 00000+0 55243-3 0 9992 2 12585 97.4729 317.9277 0005663 176.4258 183.7051 15.80424522416829 SL-3 R/B 1 12904U 81103B 25259.21006061 .00005021 00000+0 23892-3 0 9992 2 12904 81.1583 57.7364 0017930 166.5652 193.6059 15.18846564946726 SL-3 R/B 1 13068U 82013B 25259.25159503 .00005005 00000+0 22964-3 0 9990 2 13068 81.1777 4.9334 0023797 49.5098 310.8201 15.19983253377836 SL-3 R/B 1 13154U 82039B 25259.18636534 .00004615 00000+0 28949-3 0 9995 2 13154 81.1793 56.6637 0031355 171.9949 188.1784 15.08715134355314 SL-3 R/B 1 13403U 82079B 25259.22843737 .00005942 00000+0 25524-3 0 9996 2 13403 81.1476 38.7007 0026322 37.0860 323.2183 15.22197829351135 SL-14 R/B 1 13553U 82092B 25259.10382677 .00000406 00000+0 42986-4 0 9997 2 13553 82.5673 304.6846 0021133 156.4225 263.7820 14.86404977302997 SL-3 R/B 1 13819U 83010B 25259.16312460 .00014924 00000+0 36733-3 0 9994 2 13819 81.1051 215.2469 0016231 298.4262 61.5343 15.40339464331025 SL-3 R/B 1 14208U 83075B 25259.23034594 .00009965 00000+0 30657-3 0 9993 2 14208 97.6081 252.9505 0026094 128.8955 231.4620 15.33538765303375 COSMOS 1536 1 14699U 84013A 25259.28199111 .00006855 00000+0 30847-3 0 9998 2 14699 82.5436 280.7960 0016189 166.8743 193.2917 15.20807657246084 SL-14 R/B 1 14820U 84027B 25259.14142775 .00000569 00000+0 62626-4 0 9995 2 14820 82.5409 48.6779 0017840 186.8873 173.2102 14.85727759221711 SL-8 R/B 1 15483U 85006B 25259.20475308 .00000315 00000+0 11351-3 0 9994 2 15483 74.0447 222.1688 0018489 184.1339 188.3830 14.37643185128955 SL-12 R/B(2) 1 15772U 85042D 25259.03174806 .00000129 00000+0 79458-4 0 9991 2 15772 71.1062 96.7086 0034038 34.4820 78.3225 14.21911542 89561 SL-14 R/B 1 15945U 85069B 25259.24620352 .00000548 00000+0 59423-4 0 9992 2 15945 82.5299 188.9373 0020283 53.2436 307.0639 14.86177518146926 SL-16 R/B 1 16182U 85097B 25259.16745199 -.00000089 00000+0 -20582-4 0 9991 2 16182 71.0034 147.9639 0007094 180.6657 341.5318 14.16567570 62518 SL-14 R/B 1 16496U 86006B 25259.19701275 .00000857 00000+0 88705-4 0 9992 2 16496 82.5245 63.8935 0078144 130.3968 230.4104 14.86481616123287 COSMOS 1743 1 16719U 86034A 25259.25767422 .00023139 00000+0 46998-3 0 9999 2 16719 82.5348 255.0267 0006636 178.0345 182.0931 15.46170281153190 SL-14 R/B 1 16792U 86046B 25259.21021817 .00000501 00000+0 55180-4 0 9992 2 16792 82.4791 244.9615 0024909 85.0879 275.3180 14.85335204100507 SL-14 R/B 1 16882U 86055B 25259.07541638 .00000395 00000+0 42917-4 0 9999 2 16882 82.5182 290.7553 0018889 185.0490 232.7188 14.85381973 93445 AJISAI (EGS) 1 16908U 86061A 25259.27616471 -.00000064 00000+0 23331-3 0 9997 2 16908 50.0079 269.6668 0011297 203.2070 170.0815 12.44513373446283 COSMOS 1812 1 17295U 87003A 25258.82152455 .00055449 00000+0 66225-3 0 9996 2 17295 82.4937 26.0187 0001887 20.1086 340.0245 15.60806125116880 SL-14 R/B 1 17567U 87024B 25259.23945992 .00000477 00000+0 51732-4 0 9992 2 17567 82.5247 256.6425 0019847 116.2933 244.0326 14.85874492 62225 COSMOS 1833 1 17589U 87027A 25259.22032647 -.00000131 00000+0 -44560-4 0 9992 2 17589 70.9232 332.7431 0019556 105.1180 255.2107 14.13043610985669 SL-16 R/B 1 17590U 87027B 25259.06456246 -.00000171 00000+0 -61262-4 0 9993 2 17590 71.0013 284.4639 0004530 359.8602 0.2520 14.17132019990643 SL-14 R/B 1 17912U 87038B 25259.07744811 .00000377 00000+0 41094-4 0 9999 2 17912 82.4982 101.2581 0020013 25.8121 334.4088 14.85118194 53312 COSMOS 1844 1 17973U 87041A 25259.15621276 .00000268 00000+0 16407-3 0 9996 2 17973 70.8993 42.2948 0032882 283.6299 76.1161 14.14491225978904 SL-14 R/B 1 18153U 87055B 25259.15205534 .00000413 00000+0 45090-4 0 9990 2 18153 82.5017 153.5279 0019475 227.9498 132.0061 14.85385181 44029 COSMOS 1867 1 18187U 87060A 25259.20436115 -.00000026 00000+0 28011-4 0 9995 2 18187 65.0097 75.3325 0014164 262.9972 96.9501 14.31463646994956 COSMOS 1892 1 18421U 87088A 25259.15154430 .00108564 00000+0 67360-3 0 9991 2 18421 82.4781 140.9990 0007217 116.8272 243.3732 15.76647345 77381 SL-14 R/B 1 18749U 88001B 25259.27073177 .00000496 00000+0 54718-4 0 9990 2 18749 82.5169 359.4153 0019651 95.0414 265.3046 14.85288133 16137 COSMOS 1933 1 18958U 88020A 25259.19768898 .00005165 00000+0 26738-3 0 9993 2 18958 82.5119 63.2876 0005730 88.0508 272.1381 15.15998907 23772 SL-3 R/B 1 19046U 88032B 25259.25923211 .00004687 00000+0 23584-3 0 9998 2 19046 97.4977 238.7195 0029337 119.2051 241.2122 15.17328331 25637 SL-16 R/B 1 19120U 88039B 25258.94844252 .00000014 00000+0 29524-4 0 9991 2 19120 71.0132 78.0244 0023961 250.2471 109.6070 14.19574127933588 COSMOS 1953 1 19210U 88050A 25259.17601768 .00007412 00000+0 29196-3 0 9996 2 19210 82.5120 333.3612 0012388 26.0812 334.1047 15.25368994 11157 SL-8 R/B 1 19257U 88053B 25259.23259865 .00000322 00000+0 11332-3 0 9990 2 19257 74.0457 73.9905 0021010 296.5748 235.7227 14.38773332951500 COSMOS 1975 1 19573U 88093A 25259.07537241 .00007362 00000+0 29931-3 0 9999 2 19573 82.5200 292.4568 0014031 72.3498 287.9270 15.24286979992763 SL-14 R/B 1 19574U 88093B 25259.29347557 .00000529 00000+0 58433-4 0 9991 2 19574 82.5328 205.7049 0019143 254.1735 267.2297 14.85414243975145 SL-16 R/B 1 19650U 88102B 25259.15206843 -.00000244 00000+0 -98997-4 0 9999 2 19650 71.0001 158.7316 0016614 275.7924 84.1305 14.16117775902188 INTERCOSMOS 24 1 20261U 89080A 25258.95187334 .00001344 00000+0 39652-3 0 9997 2 20261 82.6059 218.0346 1189249 338.2936 17.1493 12.59225513644807 SL-14 R/B 1 20262U 89080C 25259.04248996 .00000232 00000+0 68482-4 0 9990 2 20262 82.5895 285.3333 1229818 223.9312 125.7388 12.50343159638320 DELTA 1 R/B 1 20323U 89089B 25259.10060361 .00000272 00000+0 76626-4 0 9995 2 20323 97.0887 129.1776 0068137 315.2367 44.3345 14.50462424870422 ARIANE 40 R/B 1 20443U 90005H 25259.17308625 .00000251 00000+0 93733-4 0 9998 2 20443 98.3370 319.7698 0010304 17.1781 342.9754 14.39696989867695 DELTA 2 R/B(1) 1 20453U 90008B 25259.24423721 .00032343 00000+0 64523-3 0 9996 2 20453 35.6062 222.2785 0124248 103.3220 258.1398 15.37856357899123 COSMOS 2058 1 20465U 90010A 25259.15162236 .00004078 00000+0 25282-3 0 9996 2 20465 82.4747 219.0979 0008883 202.9272 157.1562 15.09468008915899 SL-14 R/B 1 20466U 90010B 25259.19025709 .00000497 00000+0 57601-4 0 9996 2 20466 82.4994 71.2483 0020582 151.2807 208.9546 14.83335408902613 SL-14 R/B 1 20511U 90018B 25259.10786260 .00000436 00000+0 52012-4 0 9996 2 20511 82.5233 26.2511 0015287 309.7437 50.2429 14.81918918896721 HST 1 20580U 90037B 25259.02980319 .00007036 00000+0 25510-3 0 9990 2 20580 28.4678 148.7266 0002470 358.6989 1.3599 15.26330207746572 SL-16 R/B 1 20625U 90046B 25259.08652229 .00000245 00000+0 15094-3 0 9993 2 20625 70.9995 304.6021 0015438 217.2350 142.7703 14.14979998823696 COSMOS 2084 1 20663U 90055A 25259.03911587 .00002477 00000+0 18807-3 0 9999 2 20663 62.7894 210.6304 0046565 164.2554 196.0007 15.04174816910037 SL-6 R/B(2) 1 20666U 90055D 25259.06417016 .00001611 00000+0 13560-3 0 9993 2 20666 62.7821 127.1734 0013560 227.6390 132.3562 15.02411129911949 SL-8 R/B 1 20775U 90078B 25258.91328642 .00017620 00000+0 57569-3 0 9992 2 20775 82.9067 47.5897 0391393 238.7142 117.5199 14.80845314783357 SL-8 R/B 1 21088U 91006B 25259.07737481 .00000015 00000+0 -76464-6 0 9994 2 21088 82.9407 299.9453 0023026 160.9611 259.6321 13.77470738740038 OKEAN-3 1 21397U 91039A 25259.10884644 .00002988 00000+0 21812-3 0 9995 2 21397 82.5191 145.8120 0013780 199.5380 160.5320 15.03281483838792 COSMOS 2151 1 21422U 91042A 25259.26903344 .00001983 00000+0 16078-3 0 9996 2 21422 82.4938 251.7574 0010784 292.2187 67.7892 14.99151435837053 SL-14 R/B 1 21423U 91042B 25259.05727186 .00000454 00000+0 54644-4 0 9996 2 21423 82.4952 23.9278 0018574 94.8191 265.5144 14.81618727827214 ERS-1 1 21574U 91050A 25259.28404266 .00000278 00000+0 10396-3 0 9997 2 21574 98.7948 268.1234 0032104 1.7935 358.3361 14.39259967790647 ARIANE 40 R/B 1 21610U 91050F 25259.05597389 .00000246 00000+0 86494-4 0 9990 2 21610 98.2303 312.5899 0002143 225.3139 134.7878 14.42701154793814 INTERCOSMOS 25 1 21819U 91086A 25259.27171573 .00002252 00000+0 43759-3 0 9992 2 21819 82.6020 55.4070 1489581 132.7772 240.8699 12.11330490475566 SL-8 R/B 1 21876U 92008B 25259.14923492 .00000023 00000+0 80570-5 0 9999 2 21876 82.9278 37.5741 0033388 261.8117 271.3639 13.75938689685414 SL-8 R/B 1 21938U 92020B 25259.04248134 -.00000025 00000+0 -42192-4 0 9995 2 21938 82.9263 283.4622 0030308 66.6577 352.3151 13.75519026677125 USA 81 1 21949U 92023A 25259.21883632 .00000205 00000+0 68655-4 0 9997 2 21949 85.0059 232.0401 0001447 107.9834 252.1517 14.32273599 69816 COSMOS 2219 1 22219U 92076A 25259.07810002 -.00000017 00000+0 15870-4 0 9994 2 22219 71.0636 23.0738 0015732 108.5499 251.7334 14.14049283693692 SL-16 R/B 1 22220U 92076B 25259.26213079 .00000162 00000+0 10468-3 0 9995 2 22220 71.0001 195.7920 0013023 350.9454 171.0335 14.16817863697121 COSMOS 2221 1 22236U 92080A 25259.23339869 .00001821 00000+0 16308-3 0 9992 2 22236 82.5008 86.0369 0015879 61.4993 298.7825 14.95195618754718 SL-16 R/B 1 22285U 92093B 25259.25269188 -.00000090 00000+0 -21919-4 0 9992 2 22285 71.0249 10.4451 0005864 234.3267 125.7311 14.15412578688470 COSMOS 2228 1 22286U 92094A 25259.22757461 .00002915 00000+0 25630-3 0 9996 2 22286 82.5178 44.2114 0018718 165.4740 194.7024 14.96086909749965 SL-16 R/B 1 22566U 93016B 25259.20505482 -.00000045 00000+0 12819-5 0 9994 2 22566 71.0053 221.6408 0012059 236.5661 123.4309 14.15268170677487 COSMOS 2242 1 22626U 93024A 25259.20467865 .00002082 00000+0 18526-3 0 9993 2 22626 82.5159 73.4595 0016842 167.5919 192.5721 14.95507454754302 SL-16 R/B 1 22803U 93059B 25259.06850685 .00000019 00000+0 33007-4 0 9998 2 22803 70.9929 19.3568 0015069 119.9879 240.2742 14.17192260654795 ARIANE 40 R/B 1 22830U 93061H 25259.18412356 .00000181 00000+0 82368-4 0 9997 2 22830 98.5186 326.2611 0011874 82.6483 277.6050 14.32710592669111 COSMOS 2278 1 23087U 94023A 25259.18952627 .00000152 00000+0 10436-3 0 9995 2 23087 71.0533 180.1704 0010728 290.0602 69.9366 14.14314806620132 SL-16 R/B 1 23088U 94023B 25259.24556656 .00000304 00000+0 18189-3 0 9997 2 23088 70.9984 77.2252 0004528 227.9048 132.1690 14.14980042621415 SL-16 R/B 1 23343U 94074B 25259.07340659 .00000405 00000+0 61318-4 0 9997 2 23343 97.7328 291.8018 0008045 74.1944 339.5383 14.79136457661439 SL-16 R/B 1 23405U 94077B 25259.29520976 -.00000070 00000+0 -11197-4 0 9995 2 23405 70.9863 359.3730 0001042 2.0799 358.0328 14.15533436591552 ARIANE 40+ R/B 1 23561U 95021B 25259.15821388 .00000233 00000+0 88544-4 0 9993 2 23561 98.4756 327.7615 0005746 311.0132 78.3423 14.39592499594136 SL-16 R/B 1 23705U 95058B 25259.22287227 -.00000236 00000+0 -96272-4 0 9991 2 23705 71.0217 186.5375 0011793 15.0680 345.0792 14.15460752543167 SL-16 R/B 1 24298U 96051B 25259.16479510 -.00000136 00000+0 -47151-4 0 9995 2 24298 70.7626 184.6350 0014064 23.0402 337.1346 14.12394163497009 ORBVIEW 2 (SEASTAR) 1 24883U 97037A 25259.15252564 .00000281 00000+0 11418-3 0 9992 2 24883 98.8390 54.0619 0001897 186.9452 173.1707 14.35312975483437 SL-16 R/B 1 25400U 98043G 25259.09161069 .00000071 00000+0 48793-4 0 9992 2 25400 98.7953 206.4940 0010226 154.9422 205.2256 14.25991601414107 SL-16 R/B 1 25407U 98045B 25259.24869792 -.00000064 00000+0 -82707-5 0 9994 2 25407 71.0121 188.4097 0009769 286.8335 73.1717 14.16155836402401 ISS (ZARYA) 1 25544U 98067A 25259.47902118 .00010460 00000+0 18877-3 0 9999 2 25544 51.6328 214.5860 0004354 346.2034 13.8835 15.50332788529322 CZ-4B R/B 1 25732U 99025C 25259.11714404 .00000037 00000+0 38596-4 0 9993 2 25732 98.6913 302.2892 0038075 126.0091 251.1765 14.18211264363420 OKEAN-O 1 25860U 99039A 25259.17172089 .00000640 00000+0 91688-4 0 9994 2 25860 97.9740 315.5752 0001533 114.7520 245.3851 14.79937380408572 SL-16 R/B 1 25861U 99039B 25259.04942623 .00000508 00000+0 71791-4 0 9996 2 25861 98.0265 313.1348 0016270 103.1092 257.1938 14.81394898411005 DELTA 2 R/B 1 25876U 99041E 25259.11045394 .00000623 00000+0 13911-3 0 9999 2 25876 51.7623 278.1261 0505557 193.3718 165.3385 14.11117612338370 HELIOS 1B 1 25977U 99064A 25259.12494951 .00001424 00000+0 16654-3 0 9991 2 25977 98.1807 151.2139 0000439 68.3051 291.8211 14.86752981659315 TERRA 1 25994U 99068A 25259.26922826 .00000421 00000+0 95345-4 0 9997 2 25994 97.9888 314.0984 0002886 43.9892 21.0803 14.60798990369610 SL-16 R/B 1 26070U 00006B 25259.00701903 -.00000258 00000+0 -10683-3 0 9991 2 26070 71.0009 105.1250 0014221 86.6880 273.5870 14.15788498323830 TITAN 4B R/B 1 26474U 00047B 25259.20772919 .00003584 00000+0 23668-3 0 9991 2 26474 67.9902 170.5001 0047278 240.2298 119.4144 15.07767051366599 ENVISAT 1 27386U 02009A 25259.31385620 .00000113 00000+0 50336-4 0 9993 2 27386 98.3431 212.3449 0001234 89.9567 82.3739 14.38948443234093 IDEFIX & ARIANE 42P R/B 1 27422U 02021B 25259.10579477 .00000249 00000+0 11150-3 0 9990 2 27422 98.5641 195.0044 0011708 347.8662 12.2238 14.30849638219059 AQUA 1 27424U 02022A 25259.27930277 .00000973 00000+0 20605-3 0 9999 2 27424 98.3879 218.8270 0002016 91.8897 14.5569 14.61481295243251 CZ-4B R/B 1 27432U 02024C 25259.07473447 .00000018 00000+0 32177-4 0 9997 2 27432 98.9145 308.0864 0050639 157.7144 259.0627 14.14501813204552 MIDORI II (ADEOS-II) 1 27597U 02056A 25259.13172670 .00000254 00000+0 11782-3 0 9995 2 27597 98.7468 211.7042 0001846 112.3578 247.7799 14.29109742185364 H-2A R/B 1 27601U 02056E 25259.14985681 .00000315 00000+0 12540-3 0 9997 2 27601 98.2903 221.4646 0069726 322.7422 47.3519 14.33576167189107 CZ-4B R/B 1 28059U 03049C 25258.97500344 .00000464 00000+0 11844-3 0 9998 2 28059 98.6698 242.2588 0049289 45.9402 314.5836 14.54765406161199 CZ-2C R/B 1 28222U 04012C 25259.03794585 .00028760 00000+0 54224-3 0 9999 2 28222 97.7577 304.8652 0020415 224.3075 135.6541 15.48228000177126 SL-16 R/B 1 28353U 04021B 25259.21925833 -.00000107 00000+0 -31121-4 0 9995 2 28353 70.9981 238.6228 0007181 293.5498 66.4870 14.14559624 98161 CZ-4B R/B 1 28415U 04035C 25259.04281544 .00007254 00000+0 28540-3 0 9992 2 28415 97.3743 290.6133 0033604 224.3357 135.5189 15.25415162153251 CZ-2C R/B 1 28480U 04046B 25259.23610746 .00000208 00000+0 93166-4 0 9996 2 28480 98.1911 180.0898 0138712 311.1884 47.7402 14.26877783 83621 ARIANE 5 R/B 1 28499U 04049H 25259.18460685 .00001228 00000+0 14325-3 0 9990 2 28499 98.2464 56.3819 0084729 195.7859 164.0711 14.84695614119899 CZ-2D R/B 1 28738U 05024B 25259.25872827 .00025594 00000+0 50295-3 0 9991 2 28738 97.3707 264.7499 0003408 327.1561 32.9477 15.47275442112708 ALOS (DAICHI) 1 28931U 06002A 25258.84359656 .00001420 00000+0 25050-3 0 9990 2 28931 98.0930 211.0549 0002261 97.9787 262.1675 14.69017509 47804 H-2A R/B 1 28932U 06002B 25259.11463367 .00010147 00000+0 56659-3 0 9992 2 28932 98.2220 26.9248 0057782 114.0377 246.6914 15.12307878 68011 RESURS-DK 1 1 29228U 06021A 25259.16117689 .00002427 00000+0 14953-3 0 9993 2 29228 69.9353 328.0421 0004586 343.1054 16.9958 15.11432411 61146 CZ-4B R/B 1 29507U 06046C 25259.13626065 .00005182 00000+0 28007-3 0 9996 2 29507 97.5880 299.5165 0035991 149.4457 210.8882 15.14579232 33600 CZ-2C R/B 1 31114U 07010B 25259.28610380 .00000126 00000+0 76478-4 0 9993 2 31114 98.3892 16.3797 0060196 81.6020 279.1976 14.20160089954968 COSMO-SKYMED 1 1 31598U 07023A 25259.32739072 .00004170 00000+0 38799-3 0 9994 2 31598 97.8894 84.1944 0001442 93.2366 266.9019 14.94865729988837 COSMOS 2428 1 31792U 07029A 25259.16168009 -.00000124 00000+0 -40954-4 0 9998 2 31792 70.9429 209.7210 0003625 206.3862 153.7075 14.12903440939444 SL-16 R/B 1 31793U 07029B 25259.07843424 -.00000234 00000+0 -96615-4 0 9997 2 31793 70.9759 179.4195 0002834 268.9028 184.3468 14.14791399940678 KORONAS-FOTON 1 33504U 09003A 25259.01994611 .00011663 00000+0 30746-3 0 9990 2 33504 82.4296 96.7866 0013075 66.5303 293.7314 15.38270266918848 CZ-2C R/B 1 37731U 11030B 25259.13807914 .00001031 00000+0 13865-3 0 9992 2 37731 97.8248 215.2921 0052744 196.7581 173.6443 14.80460052764265 H-2A R/B 1 38341U 12025E 25259.10206827 .00002059 00000+0 19788-3 0 9999 2 38341 98.4436 207.7207 0046315 161.5720 198.7188 14.93523984722147 SHIJIAN-16 (SJ-16) 1 39358U 13057A 25259.21681472 .00001730 00000+0 17498-3 0 9990 2 39358 74.9725 155.1994 0017065 179.8983 180.2211 14.91564375645489 SL-4 R/B 1 39679U 14021B 25258.85428403 .00012657 00000+0 33022-3 0 9991 2 39679 51.6080 106.6136 0109466 187.8066 172.1215 15.33280888629395 ALOS-2 1 39766U 14029A 25259.29376098 .00000083 00000+0 17953-4 0 9993 2 39766 97.9224 355.3892 0001355 96.5892 263.5474 14.79473797611089 YAOGAN-29 1 41038U 15069A 25259.29726825 .00000431 00000+0 60101-4 0 9990 2 41038 98.0318 282.1385 0001834 144.2212 215.9125 14.82734465530038 ASTRO-H (HITOMI) 1 41337U 16012A 25259.10873523 .00002812 00000+0 16988-3 0 9997 2 41337 31.0005 41.9470 0010101 19.1718 340.9299 15.08526239525834 HXMT (HUIYAN) 1 42758U 17034A 25259.06859648 .00004726 00000+0 25897-3 0 9992 2 42758 43.0137 265.5998 0034347 214.5300 145.3316 15.14765108456035 CZ-2C R/B 1 43521U 18054D 25259.11238566 .00050470 00000+0 62018-3 0 9993 2 43521 35.1378 47.5376 0030943 29.4657 330.7808 15.58570838401316 SAOCOM 1A 1 43641U 18076A 25259.31325619 .00000452 00000+0 63376-4 0 9992 2 43641 97.8897 84.9874 0001354 91.9917 268.1451 14.82153713375532 H-2A R/B 1 43682U 18084L 25259.22376646 .00017790 00000+0 55177-3 0 9994 2 43682 98.8841 75.4714 0030022 265.0847 94.6963 15.33056315378973 SAOCOM 1B 1 46265U 20059A 25259.27698794 .00000455 00000+0 63738-4 0 9998 2 46265 97.8889 84.0586 0001542 89.4770 270.6620 14.82157005272919 CSS (TIANHE) 1 48274U 21035A 25259.20495679 .00030606 00000+0 37632-3 0 9999 2 48274 41.4641 188.8652 0003902 353.4406 6.6381 15.59591300250351 COSMOS 2550 1 48865U 21056A 25259.02187144 -.00000154 00000+0 11367-5 0 9998 2 48865 67.1425 209.3245 0008266 268.8448 91.1759 15.33827956236670 CZ-2C R/B 1 52794U 22058K 25259.07155073 .00017594 00000+0 38235-3 0 9994 2 52794 50.1916 128.6474 0054196 191.6925 168.2785 15.42826969183079 GSLV R/B 1 54149U 22138AN 25259.14793940 .00002931 00000+0 26210-3 0 9997 2 54149 87.3800 224.7815 0024918 68.6628 291.7259 14.95280538157834 XRISM 1 57800U 23137A 25259.22824451 .00005984 00000+0 36391-3 0 9997 2 57800 31.0033 329.9636 0008229 87.8135 272.3445 15.08949902111392 ACS3 1 59588U 24077B 25259.21180027 .00025675 00000+0 24169-1 0 9996 2 59588 97.3940 233.9950 0044697 346.6891 13.3085 13.80791843 70042